{"data":{"norad_id":65359,"epoch":"2026-05-25T01:53:24.006048Z","epoch_age_seconds":62069,"freshness":"FRESH","line1":"1 65359U 25190J   26145.07875007  .00018102  00000+0  62155-3 0  9990","line2":"2 65359  53.1591 173.1489 0001727  81.4040 278.7156 15.30213689 40986","mean_motion":15.30213689,"eccentricity":0.0001727,"inclination_deg":53.1591,"raan_deg":173.1489,"arg_perigee_deg":81.404,"mean_anomaly_deg":278.7156,"bstar":0.00062155,"rev_number":4098,"period_min":94.104503857958,"perigee_km":473.99062999379,"apogee_km":476.35776368118,"semimajor_km":6853.3111968375,"source":"CELESTRAK","updated_at":"2026-05-25T13:38:20.766397Z"}}